W0ZMA Weather Reports


Display with metric or nautical units.
time (UTC)temp
F
wind
direction
speed
MPH
gust
MPH
rain 1hr
in
rain 24hr
in
rain mn
in
humidity
%
barometer
mb
20260504050014 52 173 0.0 1.0 7.95 8.61 0.01 77 1013.9
20260504044512 52 173 0.0 0.0 6.69 7.29 7.29 80 1014.0
20260504043013 51 173 0.0 0.0 4.98 5.58 5.58 79 1014.2
20260504041512 52 173 0.0 0.0 2.02 2.63 2.63 78 1014.3
20260504040011 52 173 0.0 0.0 0.06 0.66 0.66 77 1014.4
20260504034519 53 173 0.0 0.0 0.00 0.60 0.60 74 1014.4
20260504033020 54 173 0.0 0.0 0.00 0.60 0.60 75 1014.4
20260504031510 54 173 0.0 0.0 0.00 0.60 0.60 69 1014.5
20260504030009 55 173 0.0 0.0 0.00 0.60 0.60 68 1014.4
20260504024528 55 173 0.0 0.0 0.01 0.60 0.60 69 1014.4
20260504023008 56 173 0.0 0.0 0.01 0.60 0.60 69 1014.3
20260504021508 55 173 0.0 0.0 0.01 0.60 0.60 70 1014.0
20260504020011 55 173 0.0 0.0 0.01 0.60 0.60 72 1014.0
20260504014506 56 173 0.0 0.0 0.00 0.59 0.59 72 1013.9
20260504013005 57 173 0.0 0.0 0.00 0.59 0.59 69 1014.1
20260504011504 58 173 0.0 0.0 0.00 0.59 0.59 64 1014.1
20260504010004 60 173 0.0 0.0 0.00 0.59 0.59 62 1014.0
20260504004508 62 173 0.0 0.0 0.00 0.59 0.59 56 1014.2
20260504003002 64 175 0.0 0.0 0.00 0.59 0.59 52 1014.2
20260504001502 65 175 0.0 0.0 0.00 0.59 0.59 47 1014.2
20260504000105 66 176 0.0 2.0 0.00 0.59 0.59 45 1014.4
20260503234600 67 280 0.0 4.0 0.00 0.59 0.59 43 1014.4
20260503233057 67 122 0.0 3.0 0.00 0.59 0.59 42 1014.6
20260503231558 68 211 0.0 4.0 0.00 0.59 0.59 43 1014.6
20260503230056 68 203 1.0 6.0 0.00 0.59 0.59 41 1014.8
20260503224554 69 167 1.0 6.0 0.00 0.59 0.59 41 1014.9
20260503223052 69 88 1.0 6.0 0.00 0.59 0.59 39 1015.0
20260503221554 69 326 2.0 8.0 0.00 0.59 0.59 39 1015.1
20260503220049 69 161 2.0 6.0 0.00 0.59 0.59 39 1015.3
20260503214546 69 222 1.0 9.0 0.00 0.59 0.59 41 1015.7
20260503213045 69 140 1.0 8.0 0.00 0.59 0.59 42 1015.8
20260503211543 69 140 1.0 8.0 0.00 0.59 0.59 39 1016.2
20260503210039 69 124 0.0 5.0 0.00 0.59 0.59 38 1016.5
20260503204537 69 244 1.0 9.0 0.00 0.59 0.59 39 1016.9
20260503203033 68 220 0.0 6.0 0.00 0.59 0.59 39 1017.1
20260503201530 68 203 2.0 9.0 0.00 0.59 0.59 42 1017.4
20260503200028 68 161 1.0 7.0 0.00 0.59 0.59 40 1017.8
20260503194525 68 176 0.0 5.0 0.00 0.59 0.59 39 1018.1
20260503193034 67 52 0.0 7.0 0.03 0.59 0.59 41 1018.4
20260503191520 66 284 1.0 4.0 0.03 0.59 0.59 43 1018.5
20260503190025 67 107 1.0 4.0 0.03 0.59 0.59 43 1018.7
20260503184518 66 279 0.0 6.0 0.03 0.59 0.59 46 1018.8
20260503183011 65 299 1.0 6.0 0.00 0.56 0.56 45 1019.1
20260503181510 65 101 2.0 7.0 0.00 0.56 0.56 44 1019.3
20260503180009 64 111 0.0 3.0 0.00 0.56 0.56 47 1019.5
20260503174506 64 199 1.0 6.0 0.00 0.56 0.56 46 1019.9
20260503173008 63 254 0.0 6.0 0.00 0.56 0.56 45 1020.1
20260503171604 63 109 0.0 4.0 0.00 0.56 0.56 51 1020.4
20260503081542 38 270 0.0 0.0 0.00 0.00 0.00 94 1019.7
20260503071532 39 270 0.0 0.0 0.00 0.00 0.00 94 1019.4
20260503054526 41 270 0.0 0.0 0.00 0.00 0.00 92 1019.6
20260503053011 42 270 0.0 0.0 0.00 0.00 0.00 91 1019.6
20260503051507 42 270 0.0 0.0 0.00 0.00 0.00 91 1019.6